GSAT0213 (GALILEO 17)

Last updated on Fri Dec 19 2025 00:02:37 GMT+0000 (Coordinated Universal Time)

1 41861U 16069C 25351.71231134 -.00000009 00000+0 00000+0 0 9998 2 41861 55.3850 106.1156 0002590 282.1972 77.7328 1.70474994 56421
UTC large
Height (km)
Speed (km/s)
/
Latitude / Longitude
Inclination (degrees)
Orbital Period (minutes)
Azimuth
Elevation
Range (km)
Doppler Factor

Next 0 passes for location: London (51.5072 / 0.1276)

Sorry there are no passes over London.